Flag for U.S.A. Weather past 2 weeks in Lakewood, Colorado, U.S.A.

Now
68 °F

Broken clouds.


Feels Like: 68 °F
Forecast: 51 / 78 °F
Wind: 3 mph from East

Location: Centennial Airport

Current Time: Sep 22, 2014 at 7:19:37 PM

Latest Report: Sep 22, 2014 at 6:53 PM


Visibility: 10 mi

Pressure: 29.98 "Hg

Humidity: 49%

Dew point: 48 °F

Location of LakewoodLocation

Historic Weather in Lakewood — Graph

°F

Lakewood temperature yesterday

Maximum temperature yesterday: 74 °F (at 1:53 PM)
Minimum temperature yesterday: 54 °F (at 6:53 AM)
Average temperature yesterday: 62 °F

Past Weeks' High & Low Weather Summary

 TemperatureHumidityPressure
High87 °F (Sep 17, 2:53 PM)100% (Sep 10, 5:53 AM)30.53 "Hg (Sep 10, 5:53 AM)
Low32 °F (Sep 12, 3:53 AM)13% (Sep 18, 3:53 PM)29.65 "Hg (Sep 9, 12:53 PM)
Average63 °F55%30.02 "Hg
* Reported Sep 7 5:53 PM — Sep 22 5:53 PM, Lakewood, Weather by CustomWeather, © 2014

Note: Actual official high and low records may vary slightly from our data, if they occured in-between our weather recording intervals... More about our weather records

Advertising

Lakewood weather history for previous 24 hours

 ConditionsComfort  
Time TempWeatherWind HumidityBarometerVisibility
5:53 PM
Sep 22
71 °FPartly sunny.3 mph42%29.97 "Hg10 mi
4:53 PM73 °FBroken clouds.8 mph41%29.95 "Hg10 mi
3:53 PM72 °FThunderstorms. Partly sunny.17 mph52%29.96 "Hg10 mi
2:53 PM76 °FPartly sunny.8 mph39%29.95 "Hg10 mi
1:53 PM74 °FBroken clouds.8 mph45%29.96 "Hg10 mi
12:53 PM71 °FBroken clouds.10 mph57%30.01 "Hg10 mi
11:53 AM68 °FPartly sunny.12 mph59%30.04 "Hg10 mi
10:53 AM65 °FPartly sunny.7 mph68%30.08 "Hg10 mi
9:53 AM60 °FBroken clouds.3 mph86%30.12 "Hg10 mi
8:53 AM60 °FLight rain. Overcast.10 mph78%30.12 "Hg10 mi
7:53 AM60 °FMostly cloudy.12 mph69%30.07 "Hg10 mi
6:53 AM58 °FLight rain. Partly cloudy.10 mph75%30.09 "Hg10 mi
5:53 AM58 °FPartly cloudy.15 mph70%30.06 "Hg10 mi
4:53 AM59 °FPassing clouds.17 mph64%30.08 "Hg10 mi
3:53 AM59 °FPartly cloudy.17 mph60%30.08 "Hg10 mi
2:53 AM59 °FPassing clouds.13 mph60%30.10 "Hg10 mi
1:53 AM60 °FPassing clouds.18 mph58%30.11 "Hg10 mi
12:53 AM59 °FPassing clouds.18 mph60%30.15 "Hg10 mi
11:53 PM
Sep 21
59 °FPartly cloudy.17 mph78%30.17 "Hg10 mi
10:53 PM58 °FLight rain. Fog.10 mph97%30.22 "Hg6 mi
9:53 PM57 °FLight rain. Fog.8 mph96%30.24 "Hg4 mi
8:53 PM60 °FThunderstorms. Fog.10 mph90%30.25 "Hg5 mi
7:53 PM63 °FLight rain. Mostly cloudy.No wind73%30.21 "Hg10 mi
Weather by CustomWeather, © 2014

See weather overviewHow to use our weather pages